This is the latest recevied weather packets stored in our database for station/object W5ITZ. If no packets are shown the sender has not sent any weather packets the latest 10 day(s).
| Time | Temp. | Humidity | Pressure | Rain* | Wind** | Luminosity | Snow |
|---|---|---|---|---|---|---|---|
| 1787927606 | 30° C | 77% | 1016.9 hPa | 0 mm | - | 404 W/m² | - |
| 1787927301 | 30° C | 79% | 1017.2 hPa | 0 mm | - | 395 W/m² | - |
| 1787926997 | 30° C | 79% | 1017.1 hPa | 0 mm | - | 365 W/m² | - |
| 1787926691 | 30° C | 80% | 1017.1 hPa | 0 mm | - | 363 W/m² | - |
| 1787926389 | 30° C | 81% | 1017.1 hPa | 0 mm | - | 353 W/m² | - |
| 1787926084 | 30° C | 81% | 1017 hPa | 0 mm | - | 326 W/m² | - |
| 1787925784 | 30° C | 82% | 1017.1 hPa | 0 mm | - | 293 W/m² | - |
| 1787925483 | 30° C | 82% | 1017 hPa | 0 mm | - | 266 W/m² | - |
| 1787925178 | 29.44° C | 83% | 1017 hPa | 0 mm | - | 250 W/m² | - |
| 1787924876 | 29.44° C | 84% | 1016.7 hPa | 0 mm | - | 230 W/m² | - |
| 1787924572 | 28.89° C | 85% | 1016.9 hPa | 0 mm | - | 213 W/m² | - |
| 1787924267 | 28.89° C | 86% | 1016.7 hPa | 0 mm | - | 88 W/m² | - |
| 1787923962 | 28.33° C | 87% | 1017 hPa | 0 mm | - | 176 W/m² | - |
| 1787923662 | 27.78° C | 88% | 1016.8 hPa | 0 mm | - | 160 W/m² | - |
| 1787923357 | 27.78° C | 90% | 1017 hPa | 0 mm | - | 145 W/m² | - |
| 1787923052 | 27.22° C | 91% | 1016.7 hPa | 0 mm | - | 131 W/m² | - |
| 1787922747 | 27.22° C | 92% | 1016.8 hPa | 0 mm | - | 117 W/m² | - |
| 1787922446 | 26.67° C | 93% | 1017 hPa | 0 mm | - | 101 W/m² | - |
| 1787922145 | 26.67° C | 94% | 1016.5 hPa | 0 mm | - | 86 W/m² | - |
| 1787921843 | 26.11° C | 95% | 1016.5 hPa | 0 mm | - | 69 W/m² | - |
| 1787921538 | 25.56° C | 95% | 1016.3 hPa | 0 mm | - | 58 W/m² | - |
| 1787921232 | 25° C | 95% | 1016.6 hPa | 0 mm | - | 44 W/m² | - |
| 1787920929 | 25° C | 95% | 1016.6 hPa | 0 mm | - | 37 W/m² | - |
| 1787920623 | 25° C | 95% | 1016.6 hPa | 0 mm | - | 35 W/m² | - |
| 1787920317 | 25° C | 96% | 1016.4 hPa | 0 mm | - | 29 W/m² | - |
* Rain latest hour (hover to see other rain measurements)
** Current wind speed in m/s (hover to see current wind gust speed)